| time (UTC) | temp F | wind direction | speed knots | gust knots | rain 1hr in | rain 24hr in | rain mn in | humidity % | barometer mb |
| 20260831151557 | 61 | 113 | 0.9 | 6.1 | 0.06 | 0.19 | 0.08 | 93 | 1005.6 |
| 20260831150055 | 61 | 104 | 0.9 | 2.6 | 0.06 | 0.19 | 0.08 | 93 | 1005.7 |
| 20260831144603 | 61 | 127 | 0.9 | 3.5 | 0.07 | 0.28 | 0.07 | 92 | 1006.0 |
| 20260831143059 | 61 | 104 | 2.6 | 6.1 | 0.06 | 0.26 | 0.06 | 91 | 1005.7 |
| 20260831141553 | 61 | 86 | 2.6 | 7.0 | 0.02 | 0.23 | 0.02 | 91 | 1005.8 |
| 20260831140052 | 62 | 27 | 3.5 | 7.8 | 0.01 | 0.21 | 0.01 | 87 | 1005.8 |
| 20260831134551 | 63 | 138 | 5.2 | 10.4 | 0.00 | 0.23 | 0.00 | 83 | 1005.8 |
| 20260831133051 | 63 | 202 | 5.2 | 12.2 | 0.00 | 0.23 | 0.00 | 82 | 1006.0 |
| 20260831131555 | 64 | 184 | 7.0 | 13.9 | 0.00 | 0.23 | 0.00 | 82 | 1005.9 |
| 20260831130104 | 64 | 182 | 6.1 | 13.9 | 0.00 | 0.23 | 0.00 | 79 | 1006.0 |
| 20260831124551 | 65 | 131 | 6.1 | 10.4 | 0.00 | 0.24 | 0.00 | 79 | 1006.0 |
| 20260831123049 | 67 | 195 | 6.1 | 8.7 | 0.00 | 0.24 | 0.00 | 77 | 1005.9 |
| 20260831121549 | 66 | 219 | 4.3 | 10.4 | 0.00 | 0.24 | 0.00 | 76 | 1006.0 |
| 20260831120049 | 68 | 174 | 7.0 | 13.0 | 0.00 | 0.24 | 0.00 | 76 | 1005.9 |
| 20260831114545 | 65 | 194 | 5.2 | 10.4 | 0.00 | 0.24 | 0.00 | 79 | 1005.9 |
| 20260831113045 | 65 | 220 | 3.5 | 8.7 | 0.00 | 0.24 | 0.00 | 80 | 1005.9 |
| 20260831111544 | 64 | 204 | 4.3 | 11.3 | 0.00 | 0.24 | 0.00 | 81 | 1006.0 |
| 20260831110044 | 66 | 175 | 4.3 | 9.6 | 0.00 | 0.24 | 0.00 | 79 | 1006.0 |
| 20260831104544 | 64 | 177 | 7.0 | 13.9 | 0.00 | 0.24 | 0.00 | 79 | 1006.1 |
| 20260831103043 | 64 | 223 | 6.1 | 13.0 | 0.00 | 0.24 | 0.00 | 77 | 1006.2 |
| 20260831101543 | 65 | 212 | 7.0 | 14.8 | 0.00 | 0.24 | 0.00 | 76 | 1006.1 |
| 20260831100041 | 66 | 194 | 8.7 | 14.8 | 0.00 | 0.24 | 0.00 | 76 | 1006.2 |
| 20260831094539 | 64 | 205 | 6.1 | 10.4 | 0.00 | 0.25 | 0.00 | 80 | 1006.1 |
| 20260831093038 | 63 | 198 | 5.2 | 11.3 | 0.00 | 0.25 | 0.00 | 82 | 1006.2 |
| 20260831091537 | 63 | 258 | 7.8 | 13.9 | 0.00 | 0.25 | 0.00 | 81 | 1006.2 |
| 20260831090037 | 63 | 198 | 7.8 | 13.0 | 0.00 | 0.25 | 0.00 | 80 | 1006.2 |
| 20260831084535 | 64 | 175 | 7.8 | 13.0 | 0.00 | 0.28 | 0.00 | 80 | 1006.1 |
| 20260831083039 | 65 | 254 | 5.2 | 10.4 | 0.00 | 0.28 | 0.00 | 78 | 1006.0 |
| 20260831081531 | 64 | 199 | 4.3 | 10.4 | 0.00 | 0.28 | 0.00 | 78 | 1005.9 |
| 20260831080028 | 63 | 204 | 4.3 | 12.2 | 0.00 | 0.28 | 0.00 | 82 | 1006.0 |
| 20260831074526 | 62 | 222 | 7.0 | 13.0 | 0.00 | 0.30 | 0.00 | 82 | 1006.1 |
| 20260831073025 | 63 | 4 | 6.1 | 11.3 | 0.00 | 0.30 | 0.00 | 82 | 1006.1 |
| 20260831071521 | 62 | 240 | 5.2 | 10.4 | 0.00 | 0.30 | 0.00 | 83 | 1006.1 |
| 20260831070025 | 61 | 218 | 5.2 | 13.0 | 0.00 | 0.30 | 0.00 | 85 | 1006.0 |
| 20260831064518 | 60 | 215 | 6.1 | 13.0 | 0.00 | 0.32 | 0.00 | 85 | 1006.0 |
| 20260831063015 | 60 | 200 | 5.2 | 13.9 | 0.00 | 0.32 | 0.00 | 85 | 1006.1 |
| 20260831061513 | 60 | 4 | 5.2 | 13.0 | 0.00 | 0.32 | 0.00 | 85 | 1006.1 |
| 20260831060011 | 59 | 227 | 3.5 | 14.8 | 0.00 | 0.32 | 0.00 | 86 | 1006.0 |
| 20260831054510 | 59 | 231 | 7.0 | 13.9 | 0.00 | 0.32 | 0.00 | 85 | 1006.0 |
| 20260831053009 | 59 | 217 | 6.1 | 12.2 | 0.00 | 0.32 | 0.00 | 86 | 1006.1 |
| 20260831051507 | 59 | 4 | 7.0 | 13.9 | 0.00 | 0.32 | 0.00 | 86 | 1006.0 |
| 20260831050006 | 58 | 214 | 5.2 | 9.6 | 0.00 | 0.32 | 0.00 | 86 | 1005.9 |
| 20260831044505 | 58 | 202 | 6.1 | 11.3 | 0.00 | 0.32 | 0.00 | 86 | 1005.9 |
| 20260831043003 | 58 | 4 | 5.2 | 11.3 | 0.00 | 0.32 | 0.00 | 86 | 1005.8 |
| 20260831041502 | 58 | 211 | 4.3 | 11.3 | 0.00 | 0.32 | 0.00 | 86 | 1005.8 |
| 20260831040101 | 58 | 229 | 5.2 | 12.2 | 0.00 | 0.32 | 0.00 | 85 | 1005.7 |
| 20260831034605 | 59 | 201 | 7.0 | 11.3 | 0.00 | 0.32 | 0.00 | 86 | 1005.7 |
| 20260831033059 | 59 | 215 | 5.2 | 8.7 | 0.00 | 0.32 | 0.00 | 86 | 1005.8 |
| 20260831031557 | 59 | 254 | 4.3 | 8.7 | 0.00 | 0.32 | 0.00 | 85 | 1005.8 |
| 20260831024617 | 59 | 227 | 5.2 | 10.4 | 0.00 | 0.32 | 0.00 | 84 | 1005.7 |
| 20260831023056 | 59 | 225 | 4.3 | 13.0 | 0.00 | 0.32 | 0.00 | 82 | 1005.7 |
| 20260831021555 | 59 | 217 | 7.0 | 12.2 | 0.00 | 0.32 | 0.00 | 82 | 1005.6 |
| 20260831020055 | 59 | 219 | 5.2 | 13.9 | 0.00 | 0.32 | 0.00 | 82 | 1005.6 |
| 20260831014553 | 59 | 202 | 9.6 | 16.5 | 0.00 | 0.32 | 0.00 | 82 | 1005.5 |
| 20260831013107 | 59 | 240 | 4.3 | 14.8 | 0.00 | 0.32 | 0.00 | 83 | 1005.6 |
| 20260831011555 | 59 | 207 | 7.8 | 17.4 | 0.00 | 0.32 | 0.00 | 83 | 1005.7 |
| 20260831010116 | 59 | 216 | 7.0 | 14.8 | 0.00 | 0.32 | 0.00 | 85 | 1005.8 |
| 20260831004552 | 59 | 231 | 4.3 | 12.2 | 0.00 | 0.32 | 0.00 | 86 | 1005.7 |
| 20260831003047 | 59 | 264 | 7.0 | 12.2 | 0.00 | 0.32 | 0.00 | 86 | 1005.8 |
| 20260831001546 | 59 | 4 | 5.2 | 8.7 | 0.00 | 0.32 | 0.00 | 86 | 1005.8 |
| 20260831000059 | 59 | 200 | 5.2 | 12.2 | 0.00 | 0.32 | 0.00 | 86 | 1005.8 |
| 20260830234544 | 59 | 224 | 7.8 | 14.8 | 0.00 | 0.32 | 0.00 | 86 | 1005.7 |
| 20260830233042 | 59 | 247 | 6.1 | 12.2 | 0.00 | 0.32 | 0.00 | 87 | 1005.8 |
| 20260830231543 | 59 | 215 | 6.1 | 12.2 | 0.00 | 0.32 | 0.00 | 87 | 1005.6 |
| 20260830230049 | 59 | 244 | 7.8 | 15.6 | 0.00 | 0.32 | 0.00 | 87 | 1005.6 |
| 20260830224538 | 59 | 231 | 7.0 | 12.2 | 0.00 | 0.32 | 0.00 | 87 | 1005.5 |
| 20260830223047 | 59 | 258 | 6.1 | 13.0 | 0.00 | 0.32 | 0.00 | 88 | 1005.5 |
| 20260830221537 | 59 | 226 | 6.1 | 14.8 | 0.00 | 0.32 | 0.00 | 88 | 1005.4 |
| 20260830220033 | 59 | 232 | 7.0 | 18.2 | 0.00 | 0.32 | 0.00 | 88 | 1005.5 |
| 20260830214533 | 59 | 245 | 9.6 | 16.5 | 0.00 | 0.32 | 0.32 | 89 | 1005.4 |
| 20260830213035 | 59 | 231 | 7.0 | 13.0 | 0.00 | 0.32 | 0.32 | 89 | 1005.4 |
| 20260830211527 | 59 | 255 | 6.1 | 10.4 | 0.00 | 0.32 | 0.32 | 90 | 1005.2 |
| 20260830210029 | 59 | 271 | 4.3 | 10.4 | 0.00 | 0.32 | 0.32 | 90 | 1005.1 |
| 20260830204525 | 59 | 238 | 7.0 | 13.0 | 0.00 | 0.32 | 0.32 | 91 | 1005.1 |
| 20260830203025 | 59 | 238 | 4.3 | 12.2 | 0.00 | 0.32 | 0.32 | 91 | 1005.0 |
| 20260830201522 | 59 | 225 | 3.5 | 11.3 | 0.00 | 0.32 | 0.32 | 91 | 1005.0 |
| 20260830200020 | 59 | 217 | 7.8 | 13.0 | 0.00 | 0.32 | 0.32 | 92 | 1005.0 |
| 20260830194521 | 59 | 254 | 6.1 | 12.2 | 0.00 | 0.32 | 0.32 | 93 | 1004.8 |
| 20260830193016 | 59 | 300 | 5.2 | 12.2 | 0.00 | 0.32 | 0.32 | 94 | 1004.6 |
| 20260830191513 | 59 | 228 | 5.2 | 9.6 | 0.00 | 0.32 | 0.32 | 94 | 1004.5 |
| 20260830190012 | 59 | 243 | 6.1 | 13.0 | 0.00 | 0.32 | 0.32 | 94 | 1004.4 |
| 20260830184508 | 60 | 242 | 4.3 | 13.0 | 0.00 | 0.32 | 0.32 | 95 | 1004.3 |
| 20260830183007 | 60 | 249 | 6.1 | 13.0 | 0.00 | 0.32 | 0.32 | 95 | 1004.1 |
| 20260830181505 | 60 | 246 | 4.3 | 11.3 | 0.00 | 0.32 | 0.32 | 95 | 1003.9 |
| 20260830180005 | 60 | 228 | 2.6 | 7.8 | 0.00 | 0.32 | 0.32 | 95 | 1003.6 |
| 20260830174505 | 60 | 246 | 1.7 | 10.4 | 0.00 | 0.32 | 0.32 | 95 | 1003.4 |
| 20260830173004 | 60 | 261 | 1.7 | 6.1 | 0.00 | 0.32 | 0.32 | 95 | 1003.4 |
| 20260830171503 | 60 | 246 | 1.7 | 5.2 | 0.01 | 0.32 | 0.32 | 95 | 1003.2 |
| 20260830170004 | 60 | 250 | 1.7 | 4.3 | 0.02 | 0.32 | 0.32 | 95 | 1003.2 |
| 20260830164502 | 60 | 252 | 0.9 | 6.1 | 0.05 | 0.32 | 0.32 | 95 | 1002.8 |
| 20260830163002 | 60 | 254 | 0.0 | 7.8 | 0.06 | 0.32 | 0.32 | 95 | 1002.6 |
| 20260830161522 | 60 | 288 | 0.9 | 6.1 | 0.06 | 0.31 | 0.31 | 95 | 1002.4 |
| 20260830160129 | 60 | 251 | 0.9 | 4.3 | 0.08 | 0.30 | 0.30 | 95 | 1002.3 |
| 20260830154557 | 60 | 332 | 0.9 | 6.1 | 0.09 | 0.28 | 0.28 | 94 | 1002.1 |
| 20260830153055 | 61 | 281 | 1.7 | 7.0 | 0.12 | 0.27 | 0.27 | 94 | 1002.0 |